Location: Tierra del Sol
(32.6128°N, 116.3319°W)
Time: 22:22:24
(UTC-07:00)

Vanguard 2 - Pass Details

Date: 28 April 2018
Orbit: 552 x 2940 km, 32.9° (Epoch: 22 May)

Event Time Altitude Azimuth Distance (km) Brightness Sun altitude
Rises 01:11:51 0° 281° (W) 4,658 11.5 -42.7°
Enters shadow 01:13:17 - 280° (W) 4,142 11.3 -42.6°
Reaches altitude 10° 01:15:37 10° 279° (W) 3,283 - -42.6°
Maximum altitude 01:23:08 69° 198° (SSW) 930 - -42.2°
Drops below altitude 10° 01:27:53 10° 115° (ESE) 2,112 - -42.0°
Sets 01:29:51 0° 112° (ESE) 2,892 - -41.9°
